Regional Weather Roundup
Issued by NWS

Home | Current Version | Previous Version | Text Only | Print | Product List | Glossary On
Versions: 1 2 3 4 5 6 7 8 9 10 11 12 13 14 15 16 17 18 19 20 21 22 23 24 25 26 27 28 29 30 31 32 33 34 35 36 37 38 39 40 41 42 43 44 45 46 47 48 49 50
000
ASUS43 KLMK 220702
RWRKY
KENTUCKY REGIONAL WEATHER ROUNDUP
NATIONAL WEATHER SERVICE LOUISVILLE KY
300 AM EDT THU JUN 22 2017

NOTE "FAIR" INDICATES FEW OR NO CLOUDS BELOW 12,000 FEET
WITH NO SIGNIFICANT WEATHER AND/OR OBSTRUCTIONS TO VISIBILITY.

KYZ001>023-026-027-061>063-070>075-220800-
WESTERN AND SOUTH CENTRAL KENTUCKY

CITY           SKY/WX    TMP DP  RH WIND       PRES   REMARKS
PADUCAH        PTCLDY    74  68  81 SE6       29.94F
HENDERSON      CLOUDY    72  68  87 S6        29.98F
OWENSBORO      CLOUDY    73  68  84 S5        29.99F
HOPKINSVILLE   MOCLDY    74  68  81 SE6       29.98F
BOWLING GREEN  MOCLDY    75  69  81 S6        30.01F
GLASGOW        NOT AVBL
$$

KYZ024-025-028>034-038-045-046-053-220800-
NORTH CENTRAL KENTUCKY

CITY           SKY/WX    TMP DP  RH WIND       PRES   REMARKS
LOUISVILLE/SDF CLOUDY    77  68  73 S8        30.00S
LOUISVILLE/LOU MOCLDY    76  69  79 S5        30.02R
FORT KNOX      CLOUDY    71  68  91 S5        30.00F
$$

KYZ035>037-039>044-047>052-055>060-089>105-220800-
NORTHEAST KENTUCKY

CITY           SKY/WX    TMP DP  RH WIND       PRES   REMARKS
LEXINGTON      CLOUDY    71  64  78 S7        30.05S
COVINGTON      MOCLDY    72  67  84 SW6       30.01S
FRANKFORT      CLOUDY    72  65  78 S5        30.03R
$$

KYZ054-064>069-076>088-106>120-220800-
SOUTHEAST KENTUCKY

CITY           SKY/WX    TMP DP  RH WIND       PRES   REMARKS
JACKSON        PTCLDY    71  64  78 CALM      30.08S
LONDON         CLOUDY    68  64  87 CALM      30.08F
SOMERSET       PTCLDY    70  68  94 CALM      30.08S
MIDDLESBORO    PTCLDY    67  67 100 CALM      30.10F
MONTICELLO     CLOUDY    69  67  93 W9        30.07F
$$





USA.gov is the U.S. government's official web portal to all federal, state and local government web resources and services.